Wind_Speed
26 25 25 25 26 25 24 23 23 24 25 25 24 24 24 23 23 24 23 22 22 21 20 19 19 18 17 16 16 16 15 16 15 15 15 15 15 15 14 14 14 13 13 13 12 11 11 10 10
26 26 26 27 27 26 25 24 24 25 26 26 26 26 26 25 24 25 24 24 23 23 22 21 21 20 19 18 17 17 17 17 17 16 16 16 16 16 15 15 15 15 14 14 13 13 12 12 11
27 27 28 28 28 27 26 25 26 26 27 27 27 28 28 27 26 26 26 25 25 25 24 23 23 22 21 20 19 18 18 18 18 18 18 18 17 17 17 17 17 16 15 14 14 14 13 13 12
27 28 29 29 28 28 27 27 28 28 28 28 28 28 29 28 28 28 27 27 27 27 26 25 25 24 23 22 21 20 20 20 19 19 20 20 19 19 19 18 18 17 17 16 15 15 15 14 14
27 28 30 29 29 29 28 28 29 29 29 29 29 29 29 29 30 29 28 28 28 28 28 27 26 26 26 24 23 22 22 22 21 21 21 21 21 20 20 19 19 18 18 17 17 16 16 16 16
27 28 29 29 29 29 29 29 29 30 29 30 30 30 30 31 31 30 29 29 29 29 29 29 28 28 27 27 25 24 24 23 22 22 22 22 22 22 22 21 21 20 19 18 18 18 18 18 18
27 27 28 29 29 30 30 30 30 30 30 30 31 31 31 31 32 32 32 31 30 30 31 31 30 30 29 28 28 27 26 25 24 23 23 23 23 23 23 23 22 21 20 20 20 20 20 20 20
28 29 29 29 29 30 30 31 31 32 32 32 32 33 32 32 32 33 33 33 32 31 32 32 33 33 31 30 30 29 28 28 27 26 25 25 25 24 24 24 24 23 22 22 22 22 21 21 22
29 29 29 29 30 29 29 30 31 32 33 33 34 33 33 33 33 33 34 34 34 33 33 33 33 34 34 33 31 31 31 30 30 29 28 27 27 26 26 25 25 24 23 24 24 24 23 23 23
29 29 29 30 31 30 30 30 30 31 32 33 33 33 33 34 34 34 34 34 34 34 34 34 34 33 34 34 33 33 33 32 32 31 30 30 29 29 28 28 27 26 26 26 26 25 25 25 25
28 28 28 30 31 31 31 31 31 31 31 31 33 33 33 33 34 34 34 35 35 34 35 34 35 36 35 35 35 35 34 34 34 33 33 32 32 31 31 30 30 29 29 28 28 28 28 27 27
27 27 27 28 30 31 31 32 32 32 31 31 32 33 33 33 34 34 35 34 35 36 36 36 36 36 36 36 35 36 36 35 35 35 35 34 34 33 33 32 32 30 30 30 30 30 30 29 29
26 26 27 27 29 30 30 31 31 31 31 32 32 33 33 33 34 35 36 36 36 36 37 37 37 37 37 37 37 37 37 37 37 37 36 36 36 35 35 34 34 33 33 32 32 32 32 31 31
25 26 27 27 28 28 29 29 30 30 30 31 31 32 33 33 35 36 37 37 37 37 38 38 37 38 37 37 38 38 39 39 38 38 37 37 37 37 37 36 36 35 35 35 34 34 34 34 34
25 25 25 26 27 27 28 27 27 28 29 29 30 31 32 34 35 36 37 37 37 38 39 39 38 38 38 38 39 39 40 40 40 39 39 39 39 38 38 38 38 38 38 37 37 37 37 37 36
25 25 24 25 26 27 27 26 26 27 28 28 28 28 29 31 33 35 36 37 37 38 39 40 39 39 38 39 40 40 41 41 41 41 41 41 41 40 40 40 40 40 40 39 39 39 39 39 38
25 25 24 24 25 25 25 24 25 25 26 27 26 27 27 28 31 34 35 36 37 38 39 39 39 40 39 40 41 41 41 41 41 41 42 42 42 42 42 42 42 42 42 41 41 41 41 41 40
24 23 23 22 23 23 23 23 24 24 25 26 27 27 27 27 29 31 33 34 35 37 38 39 40 40 41 41 41 41 42 42 42 42 43 43 42 43 43 43 43 44 44 43 43 43 42 42 41
24 24 23 22 23 23 23 23 23 24 25 25 26 27 27 27 28 29 32 33 34 35 37 38 39 40 41 42 42 42 42 43 43 43 42 44 43 43 43 43 43 44 45 45 45 45 45 44 44
23 22 22 21 22 22 23 24 24 25 25 26 26 27 27 28 28 30 32 33 34 35 36 37 38 40 40 41 42 42 43 44 44 45 44 44 45 45 44 45 45 45 45 46 46 46 46 46 45
22 22 21 21 22 22 23 23 23 24 25 26 26 27 27 28 29 31 32 33 35 36 36 36 37 39 41 41 42 43 43 43 44 45 45 45 45 46 46 46 46 46 47 47 47 46 46 46 46
21 21 21 21 21 22 22 23 22 23 23 24 24 25 26 27 28 29 31 32 33 34 35 36 38 39 41 42 43 43 43 44 45 45 46 46 46 46 46 46 46 47 48 48 47 47 46 47 47
21 21 21 21 21 22 22 23 21 22 23 23 23 24 25 26 27 29 30 31 32 33 34 35 37 38 39 41 43 44 44 45 46 46 47 46 47 47 47 47 48 47 48 48 49 49 49 49 48
22 22 22 22 22 23 22 23 21 20 20 21 22 23 25 25 26 27 29 30 30 32 33 34 36 37 38 40 42 43 43 44 44 45 46 46 47 47 49 49 49 49 49 50 50 49 49 49 49
22 21 22 22 22 22 21 22 21 20 20 21 21 22 24 25 25 26 27 28 30 31 32 34 34 36 38 39 40 41 42 43 44 44 45 47 47 47 48 49 49 50 51 52 52 51 51 50 50
21 21 22 22 22 21 21 22 20 19 20 21 22 22 24 25 26 26 27 28 29 31 32 33 34 35 36 38 39 40 40 42 43 44 45 46 46 47 48 49 49 50 51 51 51 51 50 50 50
21 21 22 23 23 22 22 21 20 20 20 21 23 24 24 25 26 26 27 28 29 30 31 32 33 34 35 36 38 39 39 40 41 43 44 45 45 46 47 48 49 50 51 51 51 51 50 50 51
22 22 22 23 24 23 22 21 20 19 21 22 24 24 24 25 26 26 27 28 29 29 30 31 33 34 35 36 38 39 39 39 40 40 41 42 44 45 46 46 46 47 48 49 49 50 50 50 50
22 22 23 24 25 25 24 22 20 20 21 22 23 24 24 25 26 26 27 29 30 30 30 31 32 33 34 35 37 38 39 39 39 40 40 41 41 43 45 45 45 46 46 46 47 49 50 50 50
23 23 23 24 24 25 25 22 21 21 21 22 23 24 24 25 25 26 27 28 29 30 30 32 33 33 33 34 35 37 38 39 39 40 40 40 41 42 44 45 46 46 47 47 48 49 50 50 50
Wind_Direction
253 254 254 254 255 254 255 255 254 254 254 253 253 252 252 252 251 252 251 250 249 247 245 243 243 244 246 247 248 247 246 246 246 246 245 244 244 244 246 246 247 248 248 248 247 246 245 243 247
254 254 254 254 255 255 256 257 257 256 254 253 252 253 252 252 251 251 250 249 249 248 246 245 244 245 246 246 246 248 247 246 246 247 247 246 245 246 247 247 248 248 249 249 247 247 246 244 247
255 255 254 254 255 255 257 258 259 257 254 252 252 253 253 253 252 251 250 249 248 247 247 245 245 245 245 245 246 247 247 245 245 246 245 246 246 248 247 248 248 248 248 248 249 250 249 247 249
255 255 254 254 255 256 257 258 257 256 254 253 252 253 254 253 251 250 249 249 248 247 246 245 244 244 245 245 245 246 246 246 246 247 246 247 248 249 248 248 249 248 248 249 249 250 250 250 251
257 255 255 255 255 256 257 257 257 256 255 253 253 252 252 252 251 249 248 247 247 246 245 244 244 243 244 244 244 244 245 245 247 248 247 247 248 249 248 248 248 250 251 248 247 249 251 252 253
257 257 257 256 256 256 256 256 256 256 254 253 253 253 252 251 249 247 246 246 245 245 244 244 243 242 242 243 242 243 244 244 246 248 247 247 247 249 248 248 248 249 249 249 249 250 253 254 254
259 259 259 259 258 257 256 256 255 255 254 253 253 253 252 250 249 247 246 245 245 245 244 244 243 242 241 241 242 243 245 245 245 246 246 245 248 249 249 250 249 249 250 251 251 252 254 256 256
260 261 260 260 260 258 257 255 255 254 253 253 253 251 250 249 247 247 246 246 245 244 243 243 243 242 241 241 242 244 245 246 245 246 247 246 247 248 248 252 251 249 250 252 254 254 256 257 259
261 262 262 261 261 260 259 257 256 255 254 254 254 252 249 247 247 247 246 247 245 243 241 241 242 242 241 241 242 243 245 246 246 246 246 246 248 249 250 251 252 250 253 255 255 255 256 258 260
263 264 263 261 261 260 259 258 257 256 255 254 253 252 249 247 246 246 246 246 245 243 242 240 241 242 241 241 241 243 244 246 247 247 247 247 248 249 249 250 251 253 254 256 257 257 258 258 260
265 265 264 262 261 260 260 258 258 257 256 254 251 251 250 247 246 245 245 245 244 242 241 241 242 242 241 241 242 243 244 245 246 247 248 248 248 249 250 250 251 254 254 256 258 259 260 260 261
266 266 266 264 263 261 261 259 257 257 256 254 252 251 249 247 244 244 243 243 244 243 242 242 243 240 240 241 242 244 245 246 246 247 248 249 249 250 250 250 252 253 254 255 257 259 260 260 261
268 268 266 266 266 264 262 260 259 258 256 254 253 251 248 246 244 243 243 244 244 243 243 242 243 241 242 243 244 245 246 247 247 248 249 250 250 250 251 251 252 252 253 255 255 257 259 261 261
267 267 266 266 266 265 263 261 259 256 255 254 254 252 250 248 246 245 245 246 245 244 243 242 243 242 242 243 245 246 247 247 248 249 249 250 251 251 251 253 254 254 255 256 256 257 259 262 262
265 265 265 266 266 264 263 260 260 257 255 254 253 253 252 249 247 246 247 246 246 246 244 243 244 243 243 243 245 247 248 248 248 249 249 250 251 252 253 254 255 255 256 257 257 258 260 260 262
265 266 266 266 265 264 263 260 260 258 257 256 254 253 253 251 248 246 247 247 246 246 245 243 244 245 245 244 245 247 248 248 248 249 250 251 251 252 253 254 254 255 256 257 258 259 260 260 261
267 268 267 265 264 263 262 260 260 259 257 257 257 255 255 253 249 247 246 246 246 247 247 245 245 246 247 246 247 248 247 246 247 249 250 251 253 253 253 253 255 255 256 257 258 260 260 261 261
270 270 268 267 266 263 261 259 259 259 259 259 258 257 257 256 252 250 248 247 248 248 248 248 247 247 248 247 247 247 248 248 248 249 250 251 252 254 253 254 255 256 256 256 258 259 259 260 262
272 269 267 266 266 264 260 259 259 258 258 259 259 259 258 257 254 252 250 249 250 250 249 250 249 249 249 248 248 247 248 249 249 249 250 251 252 253 253 254 255 255 255 256 257 259 259 261 262
271 269 268 267 267 265 262 260 259 258 258 259 260 260 258 257 254 255 255 253 253 252 251 252 250 250 250 250 249 248 248 249 249 250 251 251 251 251 252 253 255 256 256 257 258 259 259 260 262
269 269 268 268 268 266 264 260 258 258 260 261 261 260 260 258 257 256 255 255 256 255 254 253 253 252 251 251 250 249 249 250 250 251 251 252 252 252 253 255 256 257 257 257 259 260 259 260 262
268 268 269 268 268 268 267 266 260 260 261 260 260 260 261 260 258 258 257 256 257 257 256 254 254 253 253 252 251 251 251 252 252 253 253 253 253 253 254 255 256 258 258 258 259 259 261 262 263
267 266 268 268 268 267 267 269 266 264 262 261 261 261 261 261 260 259 258 258 260 261 259 257 255 254 253 253 253 252 252 252 253 253 253 253 253 253 254 255 255 257 259 258 259 260 261 261 262
265 267 267 267 267 267 268 270 269 266 264 261 261 262 264 264 264 263 262 263 264 265 264 261 258 256 255 256 255 254 253 253 253 253 253 253 254 255 255 255 255 256 258 259 260 261 262 262 262
264 265 265 266 266 268 269 268 269 269 267 264 264 265 266 266 265 266 267 267 267 267 265 263 260 258 257 257 256 255 254 254 253 253 253 253 254 255 256 257 257 257 259 260 261 261 261 262 262
263 263 265 268 270 271 269 268 269 270 269 269 268 269 269 268 268 269 270 271 271 270 267 264 263 261 259 258 258 257 256 255 256 255 254 254 255 256 257 257 257 258 259 260 260 260 262 262 263
261 261 263 266 268 270 270 268 267 270 271 270 271 272 272 271 271 272 274 275 274 273 270 267 266 264 261 259 260 259 258 258 257 258 258 257 258 258 258 259 259 259 259 260 260 260 262 262 263
261 259 260 262 267 270 271 270 268 270 273 273 273 274 274 272 273 275 277 277 276 275 273 270 268 265 263 261 261 261 259 258 258 260 260 260 259 259 259 261 261 260 260 261 261 260 261 262 263
260 257 259 264 266 269 272 271 272 274 275 276 275 275 275 274 274 275 277 278 278 277 275 275 272 269 266 264 263 263 260 259 259 260 262 262 262 261 260 260 261 260 260 262 262 261 261 262 263
261 259 260 262 266 268 272 273 272 272 273 275 276 276 276 276 277 277 279 280 279 278 277 275 274 271 268 266 264 263 262 262 261 261 263 263 263 263 262 262 261 261 262 262 263 264 263 263 264
Height
5806 5808 5809 5810 5811 5812 5812 5814 5814 5815 5816 5817 5818 5818 5819 5821 5823 5826 5826 5826 5827 5828 5830 5831 5832 5833 5834 5835 5836 5837 5837 5838 5839 5839 5840 5841 5842 5843 5843 5844 5844 5844 5845 5845 5846 5846 5847 5847 5848
5801 5802 5804 5805 5805 5806 5808 5809 5809 5810 5810 5811 5812 5813 5814 5815 5817 5818 5820 5821 5823 5824 5826 5827 5828 5829 5831 5832 5833 5834 5835 5835 5836 5837 5838 5839 5839 5840 5841 5841 5842 5842 5843 5843 5844 5844 5845 5845 5846
5795 5796 5798 5798 5799 5801 5803 5803 5804 5803 5804 5805 5806 5807 5808 5809 5811 5812 5814 5816 5818 5819 5821 5823 5824 5826 5827 5828 5829 5830 5831 5832 5833 5834 5835 5836 5837 5837 5838 5839 5839 5840 5840 5841 5841 5842 5843 5843 5844
5789 5790 5791 5793 5794 5795 5796 5797 5797 5797 5798 5799 5800 5801 5802 5804 5805 5807 5808 5810 5812 5814 5816 5818 5820 5821 5823 5824 5826 5827 5828 5829 5830 5831 5832 5833 5834 5834 5835 5835 5836 5837 5837 5838 5839 5839 5840 5841 5841
5783 5784 5785 5786 5787 5788 5789 5790 5790 5791 5792 5793 5794 5795 5796 5797 5798 5800 5802 5804 5806 5808 5810 5812 5814 5816 5818 5820 5821 5823 5824 5825 5826 5827 5828 5829 5830 5831 5831 5832 5833 5834 5834 5835 5836 5837 5837 5838 5838
5777 5777 5779 5780 5781 5782 5782 5783 5784 5784 5786 5787 5788 5789 5790 5791 5792 5794 5796 5798 5800 5802 5804 5806 5808 5811 5813 5815 5817 5818 5820 5821 5822 5823 5824 5825 5826 5827 5828 5829 5829 5830 5831 5832 5832 5833 5834 5834 5835
5771 5772 5772 5774 5774 5775 5776 5776 5777 5778 5779 5780 5781 5782 5783 5784 5785 5787 5789 5792 5794 5795 5797 5799 5802 5804 5807 5809 5811 5813 5815 5817 5818 5819 5820 5821 5821 5822 5823 5825 5825 5826 5827 5828 5829 5829 5830 5831 5831
5764 5766 5766 5767 5768 5768 5769 5769 5770 5771 5772 5773 5774 5774 5776 5777 5778 5780 5782 5784 5787 5789 5790 5792 5795 5798 5801 5803 5806 5808 5810 5811 5813 5814 5815 5816 5817 5818 5819 5820 5821 5822 5823 5824 5824 5825 5826 5826 5827
5757 5759 5759 5760 5761 5761 5762 5762 5763 5763 5764 5765 5765 5766 5768 5769 5770 5773 5775 5777 5779 5781 5783 5785 5788 5791 5794 5797 5800 5802 5804 5805 5807 5809 5810 5812 5813 5814 5815 5816 5816 5817 5818 5819 5820 5820 5821 5822 5822
5750 5752 5753 5753 5753 5754 5755 5755 5755 5755 5756 5757 5757 5757 5758 5760 5763 5765 5768 5770 5771 5773 5776 5778 5780 5783 5787 5789 5792 5795 5797 5799 5801 5803 5805 5806 5807 5809 5810 5810 5811 5812 5813 5814 5815 5815 5816 5817 5817
5743 5745 5745 5745 5746 5746 5747 5747 5747 5747 5748 5749 5749 5749 5750 5752 5755 5757 5760 5762 5764 5766 5768 5770 5773 5776 5779 5782 5785 5788 5790 5792 5794 5796 5798 5800 5801 5802 5804 5805 5806 5807 5808 5809 5809 5810 5810 5811 5812
5737 5738 5738 5738 5738 5738 5738 5739 5739 5739 5741 5740 5741 5742 5743 5745 5747 5749 5751 5754 5756 5758 5760 5763 5765 5768 5771 5774 5778 5780 5783 5785 5787 5789 5791 5792 5794 5795 5797 5799 5800 5801 5802 5803 5803 5803 5804 5805 5805
5730 5731 5731 5731 5730 5730 5730 5731 5731 5732 5732 5732 5733 5734 5735 5737 5739 5741 5743 5745 5747 5750 5752 5755 5757 5761 5764 5767 5769 5772 5774 5776 5779 5781 5783 5785 5787 5788 5790 5791 5793 5794 5795 5796 5796 5797 5797 5798 5799
5724 5724 5724 5724 5723 5723 5723 5723 5723 5724 5724 5724 5725 5726 5727 5729 5731 5733 5735 5737 5739 5742 5745 5748 5750 5753 5756 5759 5761 5764 5766 5768 5770 5772 5774 5776 5778 5780 5782 5783 5784 5786 5787 5788 5789 5789 5790 5791 5791
5716 5717 5717 5716 5716 5715 5715 5716 5716 5716 5716 5717 5718 5719 5719 5721 5723 5725 5727 5729 5731 5734 5737 5739 5742 5745 5747 5750 5753 5755 5757 5759 5762 5764 5766 5768 5769 5771 5773 5775 5776 5777 5779 5780 5780 5781 5782 5783 5784
5709 5709 5710 5710 5709 5708 5709 5710 5709 5709 5709 5710 5710 5711 5712 5713 5715 5717 5718 5720 5722 5725 5728 5731 5734 5736 5738 5741 5744 5746 5748 5751 5753 5755 5757 5758 5760 5762 5764 5765 5767 5768 5769 5771 5771 5772 5773 5774 5775
5702 5702 5702 5703 5702 5701 5701 5702 5702 5701 5702 5703 5703 5704 5705 5706 5707 5709 5710 5712 5714 5717 5719 5722 5724 5727 5729 5732 5734 5737 5739 5741 5743 5745 5747 5749 5751 5752 5754 5756 5757 5759 5760 5761 5762 5763 5764 5765 5765
5696 5695 5696 5696 5695 5695 5695 5695 5695 5694 5695 5696 5696 5697 5698 5699 5700 5701 5702 5704 5706 5708 5711 5713 5715 5718 5720 5722 5725 5727 5729 5731 5733 5735 5737 5739 5741 5742 5744 5745 5747 5748 5750 5751 5752 5753 5754 5755 5756
5689 5689 5689 5689 5688 5688 5688 5688 5688 5688 5688 5689 5689 5690 5691 5692 5692 5693 5695 5696 5698 5699 5702 5703 5705 5708 5710 5712 5714 5716 5718 5720 5723 5725 5727 5729 5730 5732 5734 5735 5736 5737 5739 5741 5742 5743 5744 5745 5745
5683 5682 5683 5683 5682 5681 5680 5681 5681 5681 5681 5682 5682 5683 5684 5684 5685 5686 5687 5688 5689 5690 5692 5693 5695 5697 5699 5701 5703 5705 5707 5709 5712 5714 5716 5718 5720 5721 5723 5724 5726 5727 5728 5730 5731 5732 5733 5734 5735
5677 5677 5677 5676 5676 5674 5674 5674 5675 5674 5674 5675 5675 5676 5677 5677 5678 5678 5679 5679 5680 5681 5682 5684 5685 5687 5688 5690 5692 5694 5696 5698 5700 5703 5704 5706 5708 5710 5712 5714 5715 5716 5718 5719 5720 5721 5723 5724 5725
5671 5671 5671 5670 5669 5668 5668 5667 5668 5668 5667 5668 5668 5669 5669 5670 5670 5670 5671 5671 5671 5672 5672 5673 5674 5676 5677 5679 5680 5682 5684 5687 5689 5691 5693 5695 5697 5699 5701 5703 5704 5705 5707 5708 5709 5711 5711 5713 5714
5665 5665 5664 5664 5663 5662 5662 5660 5662 5661 5661 5661 5662 5662 5662 5662 5662 5663 5663 5663 5663 5663 5662 5662 5662 5664 5666 5667 5669 5670 5673 5675 5677 5679 5681 5683 5685 5687 5689 5691 5692 5694 5695 5696 5698 5699 5700 5701 5702
5659 5659 5658 5657 5656 5656 5656 5655 5655 5655 5655 5655 5655 5655 5655 5655 5655 5655 5655 5655 5654 5654 5653 5652 5652 5653 5655 5656 5657 5659 5661 5663 5665 5667 5669 5671 5673 5675 5677 5679 5681 5682 5684 5685 5686 5687 5688 5689 5690
5653 5653 5652 5650 5650 5650 5650 5648 5650 5650 5649 5649 5649 5648 5648 5648 5647 5647 5647 5646 5646 5645 5644 5643 5643 5644 5645 5646 5647 5648 5650 5651 5653 5655 5657 5659 5661 5663 5665 5667 5669 5670 5671 5673 5674 5675 5677 5677 5678
5646 5646 5647 5645 5644 5644 5644 5642 5645 5644 5643 5643 5642 5642 5641 5640 5640 5639 5639 5638 5637 5636 5635 5635 5634 5635 5635 5636 5637 5637 5639 5640 5642 5644 5646 5648 5650 5651 5653 5655 5657 5658 5659 5660 5662 5663 5664 5665 5666
5639 5640 5640 5639 5638 5638 5637 5638 5639 5639 5638 5637 5636 5635 5634 5633 5633 5632 5631 5630 5629 5628 5627 5626 5626 5626 5626 5627 5627 5628 5629 5630 5631 5633 5635 5636 5638 5639 5641 5643 5644 5645 5647 5648 5649 5650 5651 5652 5653
5633 5634 5633 5632 5631 5631 5631 5632 5633 5633 5632 5631 5630 5628 5627 5626 5625 5624 5623 5622 5621 5619 5618 5617 5617 5617 5617 5617 5617 5618 5619 5620 5621 5622 5624 5625 5626 5627 5629 5630 5631 5632 5634 5635 5636 5637 5638 5639 5640
5626 5627 5626 5626 5626 5625 5625 5629 5628 5627 5625 5624 5623 5622 5620 5619 5618 5617 5615 5614 5612 5611 5609 5608 5608 5607 5607 5607 5607 5607 5608 5609 5611 5612 5613 5614 5615 5616 5617 5618 5619 5621 5622 5623 5624 5625 5626 5627 5627
5619 5620 5620 5620 5620 5619 5619 5624 5621 5620 5619 5617 5616 5615 5613 5612 5610 5609 5607 5606 5604 5602 5601 5599 5598 5598 5597 5597 5597 5597 5597 5598 5600 5601 5601 5602 5603 5604 5605 5606 5607 5608 5609 5610 5611 5612 5613 5613 5614